When you browse on this site, cookies collect data to enhance your experience and personalize the content and advertising you see.
Visit our Privacy Policy to learn more. By continuing to use the site, you agree to this use of cookies and data.
  • In Österreich
  • Länderverzeichnis
  • Für 7 Tage
  • Wassertemperatur
  • Wetterkarte
  • News
  • Widgets
  • user-avatar
    Anmelden

    Stündliche Wetter San Juan Tepa

    Heute, 5 Juni, Freitag

    Zeit Temperatur Niederschläge Wind Luftdruck Luftfeuchtigkeit
    00:00 +16°C° 0 mm 1 m/S 598 mmHg 91%
    01:00 +16°C° 0 mm 1 m/S 598 mmHg 91%
    02:00 +15°C° 0 mm 0 m/S 597 mmHg 91%
    03:00 +15°C° 0 mm 0 m/S 597 mmHg 92%
    04:00 +14°C° 0 mm 0 m/S 597 mmHg 92%
    05:00 +14°C° 0 mm 0 m/S 597 mmHg 93%
    06:00 +16°C° 0 mm 0 m/S 598 mmHg 83%
    07:00 +17°C° 0 mm 0 m/S 599 mmHg 72%
    08:00 +19°C° 0 mm 0 m/S 600 mmHg 62%
    09:00 +23°C° 0 mm 2 m/S 600 mmHg 53%
    10:00 +25°C° 0 mm 3 m/S 601 mmHg 44%
    11:00 +27°C° 0 mm 4 m/S 601 mmHg 34%
    12:00 +27°C° 0 mm 5 m/S 601 mmHg 35%
    13:00 +28°C° 0 mm 6 m/S 600 mmHg 37%
    14:00 +28°C° 0 mm 7 m/S 600 mmHg 38%
    15:00 +27°C° 0 mm 6 m/S 600 mmHg 43%
    16:00 +24°C° 0 mm 6 m/S 599 mmHg 48%
    17:00 +23°C° 0 mm 6 m/S 599 mmHg 53%
    18:00 +21°C° 0 mm 5 m/S 599 mmHg 62%
    19:00 +19°C° 0 mm 4 m/S 599 mmHg 70%
    20:00 +18°C° 0 mm 3 m/S 599 mmHg 78%
    21:00 +17°C° 0 mm 2 m/S 599 mmHg 83%
    22:00 +16°C° 0 mm 1 m/S 599 mmHg 87%
    23:00 +16°C° 0 mm 1 m/S 599 mmHg 92%

    Morgen, 6 Juni, Samstag

    Zeit Temperatur Niederschläge Wind Luftdruck Luftfeuchtigkeit
    00:00 +15°C° 0 mm 1 m/S 598 mmHg 92%
    01:00 +14°C° 0 mm 0 m/S 598 mmHg 93%
    02:00 +13°C° 0 mm 0 m/S 597 mmHg 94%
    03:00 +13°C° 0 mm 0 m/S 597 mmHg 94%
    04:00 +13°C° 0 mm 0 m/S 597 mmHg 94%
    05:00 +13°C° 0 mm 0 m/S 597 mmHg 94%
    06:00 +15°C° 0 mm 0 m/S 598 mmHg 81%
    07:00 +17°C° 0 mm 0 m/S 599 mmHg 68%
    08:00 +19°C° 0 mm 0 m/S 600 mmHg 55%
    09:00 +23°C° 0 mm 1 m/S 600 mmHg 48%
    10:00 +25°C° 0 mm 2 m/S 601 mmHg 40%
    11:00 +27°C° 0 mm 3 m/S 601 mmHg 33%
    12:00 +27°C° 0 mm 3 m/S 601 mmHg 32%
    13:00 +28°C° 0 mm 4 m/S 601 mmHg 30%
    14:00 +29°C° 0 mm 5 m/S 600 mmHg 29%
    15:00 +27°C° 0 mm 5 m/S 600 mmHg 37%
    16:00 +26°C° 0 mm 6 m/S 599 mmHg 45%
    17:00 +24°C° 0 mm 6 m/S 598 mmHg 52%
    18:00 +22°C° 0 mm 5 m/S 598 mmHg 63%
    19:00 +20°C° 0 mm 3 m/S 598 mmHg 73%
    20:00 +18°C° 0 mm 2 m/S 598 mmHg 83%
    21:00 +18°C° 0 mm 2 m/S 598 mmHg 86%
    22:00 +18°C° 0 mm 1 m/S 598 mmHg 88%
    23:00 +16°C° 0 mm 1 m/S 598 mmHg 91%

    übermorgen, 7 Juni, Sonntag

    Zeit Temperatur Niederschläge Wind Luftdruck Luftfeuchtigkeit
    00:00 +16°C° 0 mm 1 m/S 598 mmHg 90%
    01:00 +14°C° 0 mm 0 m/S 597 mmHg 90%
    02:00 +14°C° 0 mm 0 m/S 597 mmHg 89%
    03:00 +13°C° 0 mm 0 m/S 596 mmHg 89%
    04:00 +13°C° 0 mm 0 m/S 596 mmHg 89%
    05:00 +13°C° 0 mm 0 m/S 596 mmHg 89%
    06:00 +18°C° 0 mm 1 m/S 597 mmHg 76%
    07:00 +20°C° 0 mm 1 m/S 599 mmHg 64%
    08:00 +23°C° 0 mm 1 m/S 600 mmHg 51%
    09:00 +25°C° 0 mm 2 m/S 600 mmHg 44%
    10:00 +27°C° 0 mm 2 m/S 601 mmHg 36%
    11:00 +29°C° 0 mm 3 m/S 601 mmHg 29%
    12:00 +29°C° 0 mm 4 m/S 601 mmHg 28%
    13:00 +30°C° 0 mm 4 m/S 600 mmHg 27%
    14:00 +30°C° 0 mm 5 m/S 600 mmHg 25%
    15:00 +29°C° 0 mm 4 m/S 600 mmHg 30%
    16:00 +28°C° 0 mm 4 m/S 599 mmHg 34%
    17:00 +27°C° 0 mm 4 m/S 599 mmHg 38%
    18:00 +26°C° 0.1 mm 3 m/S 599 mmHg 47%
    19:00 +24°C° 0.1 mm 2 m/S 599 mmHg 56%
    20:00 +21°C° 0.1 mm 2 m/S 599 mmHg 65%
    21:00 +21°C° 0 mm 1 m/S 598 mmHg 68%
    22:00 +21°C° 0 mm 1 m/S 598 mmHg 70%
    23:00 +20°C° 0 mm 1 m/S 598 mmHg 73%

    8 Juni, Montag

    Zeit Temperatur Niederschläge Wind Luftdruck Luftfeuchtigkeit
    00:00 +18°C° 0 mm 0 m/S 598 mmHg 71%
    01:00 +19°C° 0 mm 0 m/S 598 mmHg 70%
    02:00 +19°C° 0 mm 0 m/S 598 mmHg 68%
    03:00 +18°C° 0 mm 0 m/S 598 mmHg 70%
    04:00 +19°C° 0 mm 1 m/S 598 mmHg 73%
    05:00 +19°C° 0 mm 1 m/S 597 mmHg 75%
    06:00 +21°C° 0 mm 1 m/S 599 mmHg 66%
    07:00 +23°C° 0 mm 1 m/S 600 mmHg 58%
    08:00 +25°C° 0 mm 2 m/S 601 mmHg 50%
    09:00 +27°C° 0 mm 2 m/S 601 mmHg 44%
    10:00 +29°C° 0 mm 3 m/S 601 mmHg 37%
    11:00 +30°C° 0 mm 4 m/S 602 mmHg 31%
    12:00 +32°C° 0 mm 4 m/S 601 mmHg 29%
    13:00 +32°C° 0 mm 4 m/S 601 mmHg 28%
    14:00 +32°C° 0 mm 4 m/S 600 mmHg 26%
    15:00 +30°C° 0 mm 4 m/S 600 mmHg 31%
    16:00 +29°C° 0 mm 4 m/S 600 mmHg 36%
    17:00 +28°C° 0 mm 4 m/S 599 mmHg 42%
    18:00 +26°C° 0.2 mm 3 m/S 599 mmHg 50%
    19:00 +25°C° 0.2 mm 2 m/S 599 mmHg 59%
    20:00 +23°C° 0.2 mm 2 m/S 599 mmHg 68%
    21:00 +22°C° 0.1 mm 1 m/S 599 mmHg 69%
    22:00 +21°C° 0.1 mm 1 m/S 599 mmHg 70%
    23:00 +21°C° 0.1 mm 1 m/S 599 mmHg 71%

    9 Juni, Dienstag

    Zeit Temperatur Niederschläge Wind Luftdruck Luftfeuchtigkeit
    00:00 +20°C° 0 mm 1 m/S 599 mmHg 73%
    01:00 +18°C° 0 mm 0 m/S 598 mmHg 74%
    02:00 +17°C° 0 mm 0 m/S 598 mmHg 75%
    03:00 +17°C° 0 mm 0 m/S 598 mmHg 76%
    04:00 +16°C° 0 mm 0 m/S 598 mmHg 77%
    05:00 +16°C° 0 mm 0 m/S 598 mmHg 78%
    06:00 +21°C° 0 mm 1 m/S 599 mmHg 68%
    07:00 +23°C° 0 mm 1 m/S 600 mmHg 58%
    08:00 +26°C° 0 mm 1 m/S 601 mmHg 47%
    09:00 +27°C° 0 mm 2 m/S 602 mmHg 40%
    10:00 +29°C° 0 mm 3 m/S 602 mmHg 32%
    11:00 +32°C° 0 mm 4 m/S 603 mmHg 25%
    12:00 +32°C° 0 mm 5 m/S 602 mmHg 23%
    13:00 +33°C° 0 mm 6 m/S 602 mmHg 22%
    14:00 +33°C° 0 mm 7 m/S 602 mmHg 20%
    15:00 +32°C° 0 mm 7 m/S 601 mmHg 23%
    16:00 +29°C° 0 mm 7 m/S 600 mmHg 26%
    17:00 +28°C° 0 mm 7 m/S 600 mmHg 28%
    18:00 +26°C° 0 mm 5 m/S 600 mmHg 35%
    19:00 +24°C° 0 mm 3 m/S 599 mmHg 43%
    20:00 +21°C° 0 mm 2 m/S 599 mmHg 50%
    21:00 +20°C° 0 mm 2 m/S 599 mmHg 59%
    22:00 +20°C° 0 mm 1 m/S 599 mmHg 68%
    23:00 +19°C° 0 mm 1 m/S 599 mmHg 77%

    10 Juni, Mittwoch

    Zeit Temperatur Niederschläge Wind Luftdruck Luftfeuchtigkeit
    00:00 +19°C° 0 mm 1 m/S 599 mmHg 81%
    01:00 +18°C° 0 mm 1 m/S 599 mmHg 84%
    02:00 +16°C° 0 mm 0 m/S 598 mmHg 87%
    03:00 +15°C° 0 mm 0 m/S 598 mmHg 88%
    04:00 +15°C° 0 mm 0 m/S 598 mmHg 89%
    05:00 +14°C° 0 mm 0 m/S 598 mmHg 90%
    06:00 +19°C° 0 mm 1 m/S 599 mmHg 76%
    07:00 +20°C° 0 mm 2 m/S 601 mmHg 62%
    08:00 +24°C° 0 mm 2 m/S 602 mmHg 49%
    09:00 +25°C° 0 mm 4 m/S 602 mmHg 41%
    10:00 +27°C° 0 mm 5 m/S 603 mmHg 34%
    11:00 +28°C° 0 mm 6 m/S 603 mmHg 27%
    12:00 +28°C° 0 mm 7 m/S 603 mmHg 29%
    13:00 +28°C° 0 mm 8 m/S 602 mmHg 31%
    14:00 +28°C° 0 mm 8 m/S 602 mmHg 33%
    15:00 +27°C° 0 mm 8 m/S 601 mmHg 39%
    16:00 +24°C° 0 mm 8 m/S 601 mmHg 46%
    17:00 +23°C° 0 mm 8 m/S 600 mmHg 52%
    18:00 +21°C° 0 mm 6 m/S 600 mmHg 61%
    19:00 +20°C° 0 mm 4 m/S 600 mmHg 70%
    20:00 +18°C° 0 mm 2 m/S 600 mmHg 79%
    21:00 +18°C° 0 mm 2 m/S 600 mmHg 83%
    22:00 +18°C° 0 mm 1 m/S 600 mmHg 87%
    23:00 +16°C° 0 mm 1 m/S 600 mmHg 92%
    Mehr zeigen